This is the latest recevied weather packets stored in our database for station/object SP1BMW-13. If no packets are shown the sender has not sent any weather packets the latest 10 day(s).
| Time | Temp. | Humidity | Pressure | Rain* | Wind** | Luminosity | Snow |
|---|---|---|---|---|---|---|---|
| 1787840356 | 26.11° C | 39% | 1017.9 hPa | 0 mm | 0.45 m/s, 28° | 411 W/m² | - |
| 1787840296 | 26.11° C | 38% | 1017.7 hPa | 0 mm | 0.89 m/s, 47° | 412 W/m² | - |
| 1787840236 | 26.11° C | 37% | 1017.7 hPa | 0 mm | 3.13 m/s, 32° | 412 W/m² | - |
| 1787840176 | 26.11° C | 37% | 1017.8 hPa | 0 mm | 1.34 m/s, 38° | 415 W/m² | - |
| 1787840116 | 26.11° C | 38% | 1017.6 hPa | 0 mm | 2.68 m/s, 62° | 420 W/m² | - |
| 1787840056 | 26.11° C | 37% | 1017.8 hPa | 0 mm | 1.34 m/s, 105° | 422 W/m² | - |
| 1787839996 | 26.11° C | 37% | 1017.7 hPa | 0 mm | 0.89 m/s, 108° | 425 W/m² | - |
| 1787839936 | 26.11° C | 37% | 1017.8 hPa | 0 mm | 1.34 m/s, 48° | 429 W/m² | - |
| 1787839876 | 26.11° C | 37% | 1017.9 hPa | 0 mm | 3.58 m/s, 38° | 430 W/m² | - |
| 1787839816 | 26.11° C | 37% | 1017.8 hPa | 0 mm | 1.79 m/s, 34° | 432 W/m² | - |
| 1787839755 | 26.11° C | 38% | 1017.9 hPa | 0 mm | 0.45 m/s, 50° | 431 W/m² | - |
| 1787839696 | 26.11° C | 38% | 1017.9 hPa | 0 mm | 0.45 m/s, 48° | 433 W/m² | - |
| 1787839635 | 26.11° C | 37% | 1017.9 hPa | 0 mm | 1.34 m/s, 128° | 434 W/m² | - |
| 1787839576 | 25.56° C | 37% | 1018 hPa | 0 mm | 1.79 m/s, 72° | 437 W/m² | - |
| 1787839516 | 25.56° C | 38% | 1017.8 hPa | 0 mm | 1.34 m/s, 48° | 439 W/m² | - |
| 1787839456 | 25.56° C | 38% | 1017.8 hPa | 0 mm | 1.79 m/s, 26° | 440 W/m² | - |
| 1787839396 | 25.56° C | 37% | 1017.9 hPa | 0 mm | 1.34 m/s, 174° | 441 W/m² | - |
| 1787839336 | 25.56° C | 37% | 1017.8 hPa | 0 mm | 3.13 m/s, 49° | 441 W/m² | - |
| 1787839276 | 25.56° C | 38% | 1017.9 hPa | 0 mm | 0.89 m/s, 13° | 444 W/m² | - |
| 1787839216 | 26.11° C | 38% | 1017.9 hPa | 0 mm | 2.68 m/s, 5° | 445 W/m² | - |
| 1787839156 | 26.11° C | 38% | 1017.9 hPa | 0 mm | 3.58 m/s, 58° | 450 W/m² | - |
| 1787839096 | 26.11° C | 36% | 1017.9 hPa | 0 mm | 4.02 m/s, 77° | 454 W/m² | - |
| 1787839036 | 26.11° C | 37% | 1017.7 hPa | 0 mm | 2.68 m/s, 42° | 455 W/m² | - |
| 1787838976 | 26.11° C | 37% | 1017.9 hPa | 0 mm | 3.13 m/s, 22° | 457 W/m² | - |
| 1787838916 | 26.11° C | 38% | 1017.7 hPa | 0 mm | 0.89 m/s, 62° | 459 W/m² | - |
* Rain latest hour (hover to see other rain measurements)
** Current wind speed in m/s (hover to see current wind gust speed)